EW3393 Weather Reports


Display with metric or nautical units.
time (UTC)temp
F
wind
direction
speed
MPH
gust
MPH
rain 1hr
in
rain 24hr
in
rain mn
in
humidity
%
barometer
mb
20260504011814 75 276 29.0 36.0 0.00 0.00 0.00 37 1006.5
20260504011329 75 277 24.0 34.0 0.00 0.00 0.00 36 1006.4
20260504010822 75 273 28.0 34.0 0.00 0.00 0.00 36 1006.4
20260504010314 76 267 25.0 32.0 0.00 0.00 0.00 35 1006.3
20260504005823 76 279 20.0 29.0 0.00 0.00 0.00 36 1006.4
20260504005314 76 270 22.0 33.0 0.00 0.00 0.00 35 1006.5
20260504004826 77 272 21.0 28.0 0.00 0.00 0.00 34 1006.4
20260504004338 77 258 21.0 30.0 0.00 0.00 0.00 33 1006.3
20260504003831 77 267 20.0 30.0 0.00 0.00 0.00 34 1006.3
20260504003322 77 274 22.0 33.0 0.00 0.00 0.00 34 1006.2
20260504002815 77 273 24.0 33.0 0.00 0.00 0.00 34 1006.2
20260504002347 77 254 19.0 27.0 0.00 0.00 0.00 34 1006.3
20260504001823 78 265 21.0 27.0 0.00 0.00 0.00 34 1006.3
20260504001316 78 260 19.0 26.0 0.00 0.00 0.00 32 1006.2
20260504000829 78 253 19.0 32.0 0.00 0.00 0.00 33 1006.1
20260504000341 78 259 20.0 32.0 0.00 0.00 0.00 33 1006.4
20260503235829 78 242 25.0 32.0 0.00 0.00 0.00 33 1006.4
20260503235319 79 254 24.0 32.0 0.00 0.00 0.00 33 1006.5
20260503234833 78 267 24.0 32.0 0.00 0.00 0.00 34 1006.5
20260503234325 78 265 23.0 33.0 0.00 0.00 0.00 34 1006.4
20260503233838 78 266 22.0 33.0 0.00 0.00 0.00 35 1006.4
20260503233314 78 269 27.0 32.0 0.00 0.00 0.00 35 1006.3
20260503232827 78 248 26.0 35.0 0.00 0.00 0.00 35 1006.4
20260503232319 78 287 28.0 35.0 0.00 0.00 0.00 35 1006.2
20260503231832 78 273 27.0 38.0 0.00 0.00 0.00 35 1006.3
20260503231322 77 254 27.0 38.0 0.00 0.00 0.00 36 1006.2
20260503230815 78 256 29.0 36.0 0.00 0.00 0.00 36 1006.2
20260503230347 78 268 28.0 37.0 0.00 0.00 0.00 36 1006.2
20260503225816 78 267 29.0 37.0 0.00 0.00 0.00 36 1006.3
20260503225327 78 254 27.0 38.0 0.00 0.00 0.00 36 1006.3
20260503224825 78 271 30.0 38.0 0.00 0.00 0.00 36 1006.4
20260503224317 78 258 28.0 37.0 0.00 0.00 0.00 36 1006.4
20260503223831 78 281 29.0 38.0 0.00 0.00 0.00 37 1006.4
20260503223322 78 259 28.0 38.0 0.00 0.00 0.00 38 1006.4
20260503222814 77 271 32.0 40.0 0.00 0.00 0.00 38 1006.6
20260503222326 77 259 34.0 40.0 0.00 0.00 0.00 38 1006.6
20260503221818 77 283 29.0 39.0 0.00 0.00 0.00 38 1006.6
20260503221330 79 263 31.0 39.0 0.00 0.00 0.00 36 1006.6
20260503220826 78 282 29.0 40.0 0.00 0.00 0.00 36 1006.5
20260503220317 79 269 32.0 39.0 0.00 0.00 0.00 35 1006.6
20260503215828 79 269 27.0 34.0 0.00 0.00 0.00 34 1006.7
20260503215319 79 275 25.0 35.0 0.00 0.00 0.00 34 1006.7
20260503214813 79 263 25.0 35.0 0.00 0.00 0.00 35 1006.8
20260503214326 79 290 26.0 39.0 0.00 0.00 0.00 34 1006.8
20260503213819 79 281 27.0 39.0 0.00 0.00 0.00 34 1006.7
20260503213332 80 275 30.0 38.0 0.00 0.00 0.00 33 1006.7
20260503212830 80 275 25.0 38.0 0.00 0.00 0.00 33 1006.7
20260503212323 79 266 27.0 38.0 0.00 0.00 0.00 34 1006.9
20260503211817 80 276 27.0 35.0 0.00 0.00 0.00 33 1006.9
20260503211329 80 259 27.0 34.0 0.00 0.00 0.00 33 1007.0
20260503210821 80 252 22.0 34.0 0.00 0.00 0.00 34 1007.1
20260503210313 80 271 25.0 35.0 0.00 0.00 0.00 34 1007.0
20260503205823 80 249 27.0 35.0 0.00 0.00 0.00 34 1007.1
20260503205313 80 259 25.0 33.0 0.00 0.00 0.00 34 1007.1
20260503204827 80 286 25.0 35.0 0.00 0.00 0.00 34 1007.2
20260503204324 80 287 25.0 35.0 0.00 0.00 0.00 33 1007.2
20260503203818 81 276 24.0 33.0 0.00 0.00 0.00 33 1007.2
20260503203330 80 267 25.0 30.0 0.00 0.00 0.00 34 1007.2
20260503202822 80 277 24.0 30.0 0.00 0.00 0.00 34 1007.3
20260503202313 80 283 25.0 30.0 0.00 0.00 0.00 33 1007.3
20260503201828 81 253 23.0 30.0 0.00 0.00 0.00 33 1007.4
20260503201340 81 252 24.0 30.0 0.00 0.00 0.00 32 1007.4
20260503200833 81 269 24.0 30.0 0.00 0.00 0.00 33 1007.4
20260503200330 81 298 25.0 30.0 0.00 0.00 0.00 33 1007.4
20260503195819 81 274 22.0 31.0 0.00 0.00 0.00 34 1007.5
20260503195331 81 261 23.0 29.0 0.00 0.00 0.00 33 1007.6
20260503194824 80 258 20.0 31.0 0.00 0.00 0.00 35 1007.9
20260503194315 80 261 24.0 34.0 0.00 0.00 0.00 33 1007.8
20260503193829 80 252 24.0 34.0 0.00 0.00 0.00 33 1007.9
20260503193320 80 290 23.0 30.0 0.00 0.00 0.00 34 1007.9
20260503192833 80 261 23.0 28.0 0.00 0.00 0.00 34 1008.0
20260503192344 81 261 21.0 29.0 0.00 0.00 0.00 33 1008.0
20260503191821 80 257 20.0 32.0 0.00 0.00 0.00 33 1008.1
20260503191353 80 267 23.0 32.0 0.00 0.00 0.00 33 1008.1
20260503190825 80 287 21.0 29.0 0.00 0.00 0.00 33 1008.2
20260503190317 80 241 22.0 29.0 0.00 0.00 0.00 34 1008.3
20260503185847 80 258 22.0 29.0 0.00 0.00 0.00 33 1008.3
20260503185317 80 271 23.0 28.0 0.00 0.00 0.00 33 1008.3
20260503184830 80 281 21.0 29.0 0.00 0.00 0.00 33 1008.3
20260503184342 80 258 19.0 29.0 0.00 0.00 0.00 32 1008.3
20260503183814 81 265 19.0 25.0 0.00 0.00 0.00 31 1008.3
20260503183325 81 275 17.0 21.0 0.00 0.00 0.00 33 1008.4
20260503182843 81 272 16.0 21.0 0.00 0.00 0.00 33 1008.4
20260503182313 80 265 17.0 24.0 0.00 0.00 0.00 32 1008.5
20260503181824 80 298 19.0 24.0 0.00 0.00 0.00 33 1008.5
20260503181315 80 269 16.0 23.0 0.00 0.00 0.00 34 1008.6
20260503180826 80 269 17.0 23.0 0.00 0.00 0.00 34 1008.6
20260503180336 80 266 16.0 24.0 0.00 0.00 0.00 33 1008.6
20260503175823 79 292 14.0 24.0 0.00 0.00 0.00 34 1008.7
20260503175314 80 265 16.0 21.0 0.00 0.00 0.00 33 1008.6
20260503174827 80 285 16.0 20.0 0.00 0.00 0.00 33 1008.6
20260503174318 79 285 14.0 18.0 0.00 0.00 0.00 33 1008.7
20260503173850 79 270 15.0 20.0 0.00 0.00 0.00 34 1008.6
20260503173324 78 259 15.0 20.0 0.00 0.00 0.00 35 1008.6
20260503172816 78 276 15.0 23.0 0.00 0.00 0.00 36 1008.7
20260503172327 78 271 16.0 23.0 0.00 0.00 0.00 37 1008.6
20260503171820 77 265 18.0 21.0 0.00 0.00 0.00 38 1008.7
20260503171331 77 261 17.0 23.0 0.00 0.00 0.00 37 1008.7
20260503170822 77 261 16.0 24.0 0.00 0.00 0.00 37 1008.8
20260503170333 76 270 18.0 25.0 0.00 0.00 0.00 38 1008.8
20260503150821 70 283 17.0 27.0 0.00 0.00 0.00 48 1008.6
20260503150332 70 261 20.0 28.0 0.00 0.00 0.00 48 1008.6
20260503131340 67 294 10.0 13.0 0.00 0.00 0.00 52 1007.6
20260503130832 67 294 10.0 16.0 0.00 0.00 0.00 51 1007.6
20260503130323 68 302 10.0 17.0 0.00 0.00 0.00 49 1007.5
20260503110819 69 272 11.0 14.0 0.00 0.00 0.00 46 1007.0
20260503110330 70 279 10.0 13.0 0.00 0.00 0.00 45 1007.0
20260503090321 74 288 8.0 11.0 0.00 0.00 0.00 38 1008.1
20260503081318 75 277 7.0 9.0 0.00 0.00 0.00 31 1008.7
20260503080831 75 280 7.0 10.0 0.00 0.00 0.00 34 1008.7
20260503080323 75 279 8.0 9.0 0.00 0.00 0.00 35 1008.7
20260503072828 75 286 7.0 9.0 0.00 0.00 0.00 36 1008.8
20260503072320 75 288 7.0 9.0 0.00 0.00 0.00 37 1008.9
20260503071833 75 283 7.0 8.0 0.00 0.00 0.00 38 1008.8
20260503071344 75 273 6.0 8.0 0.00 0.00 0.00 38 1008.8
20260503070815 76 310 4.0 7.0 0.00 0.00 0.00 38 1008.9
20260503070326 76 311 3.0 5.0 0.00 0.00 0.00 38 1008.9
20260503060328 78 292 8.0 10.0 0.00 0.00 0.00 35 1009.0
20260503054844 78 320 5.0 8.0 0.00 0.00 0.00 35 1009.0
20260503054332 78 318 5.0 8.0 0.00 0.00 0.00 35 1009.0
20260503053844 78 299 5.0 9.0 0.00 0.00 0.00 35 1009.0
20260503053334 78 310 6.0 8.0 0.00 0.00 0.00 35 1008.9
20260503052826 78 317 5.0 8.0 0.00 0.00 0.00 34 1009.0
20260503052317 79 304 6.0 8.0 0.00 0.00 0.00 34 1009.0
20260503051829 79 317 5.0 8.0 0.00 0.00 0.00 33 1009.0
20260503051341 80 279 5.0 9.0 0.00 0.00 0.00 33 1009.0
20260503050833 80 298 6.0 9.0 0.00 0.00 0.00 33 1008.9
20260503050343 80 317 5.0 8.0 0.00 0.00 0.00 32 1008.9
20260503045815 81 296 4.0 10.0 0.00 0.00 0.00 32 1008.9
20260503045327 81 279 8.0 10.0 0.00 0.00 0.00 32 1008.8
20260503044819 80 280 5.0 10.0 0.00 0.00 0.00 32 1008.8
20260503044350 81 335 4.0 9.0 0.00 0.00 0.00 32 1008.7
20260503043823 81 281 7.0 10.0 0.00 0.00 0.00 32 1008.7
20260503043334 81 306 8.0 10.0 0.00 0.00 0.00 32 1008.6
20260503042825 81 296 7.0 9.0 0.00 0.00 0.00 32 1008.6
20260503042336 81 295 6.0 10.0 0.00 0.00 0.00 32 1008.7
20260503041828 81 286 7.0 9.0 0.00 0.00 0.00 32 1008.6
20260503041319 82 309 3.0 5.0 0.00 0.00 0.00 31 1008.5
20260503040815 82 13 2.0 9.0 0.00 0.00 0.00 32 1008.4
20260503040327 82 350 4.0 10.0 0.00 0.00 0.00 32 1008.4
20260503035816 82 331 5.0 12.0 0.00 0.00 0.00 32 1008.4
20260503035327 82 336 8.0 12.0 0.00 0.00 0.00 32 1008.4
20260503034820 82 348 7.0 12.0 0.00 0.00 0.00 32 1008.3
20260503034331 82 297 9.0 14.0 0.00 0.00 0.00 32 1008.3
20260503033822 82 323 9.0 15.0 0.00 0.00 0.00 32 1008.1
20260503033334 82 298 11.0 14.0 0.00 0.00 0.00 32 1008.1
20260503032826 83 296 10.0 17.0 0.00 0.00 0.00 32 1008.0
20260503032318 83 281 12.0 17.0 0.00 0.00 0.00 32 1007.9
20260503031815 83 288 14.0 18.0 0.00 0.00 0.00 32 1007.8
20260503031326 83 273 11.0 18.0 0.00 0.00 0.00 31 1007.8
20260503030818 84 269 11.0 14.0 0.00 0.00 0.00 29 1007.8
20260503030330 84 275 8.0 19.0 0.00 0.00 0.00 28 1007.9
20260503025819 84 300 10.0 19.0 0.00 0.00 0.00 28 1007.7
20260503025330 85 261 11.0 14.0 0.00 0.00 0.00 27 1007.7
20260503024822 85 286 10.0 13.0 0.00 0.00 0.00 22 1007.6
20260503024332 86 281 4.0 8.0 0.00 0.00 0.00 12 1007.5
20260503023828 86 146 2.0 8.0 0.00 0.00 0.00 12 1007.3
20260503023318 87 123 3.0 9.0 0.00 0.00 0.00 12 1007.2
20260503022850 87 128 5.0 11.0 0.00 0.00 0.00 12 1007.2
20260503022320 87 128 4.0 11.0 0.00 0.00 0.00 12 1007.1
20260503021833 88 104 5.0 9.0 0.00 0.00 0.00 11 1007.1
20260503021324 88 149 4.0 10.0 0.00 0.00 0.00 11 1007.1
20260503020816 89 144 7.0 11.0 0.00 0.00 0.00 11 1007.1
20260503020327 89 129 7.0 11.0 0.00 0.00 0.00 11 1007.0
20260503015815 89 111 6.0 10.0 0.00 0.00 0.00 10 1007.1
20260503015347 90 103 7.0 11.0 0.00 0.00 0.00 10 1007.1
20260503014819 90 135 6.0 11.0 0.00 0.00 0.00 10 1007.2
20260503014315 90 138 5.0 13.0 0.00 0.00 0.00 9 1007.1
20260503013828 91 146 8.0 13.0 0.00 0.00 0.00 9 1007.1
20260503013317 91 107 6.0 11.0 0.00 0.00 0.00 9 1007.1
20260503012849 91 145 4.0 11.0 0.00 0.00 0.00 9 1007.1
20260503012318 91 134 6.0 12.0 0.00 0.00 0.00 9 1007.1